Flag Weather past 2 weeks in Hinckley, England, United Kingdom

Now
57 °F

Fog.


Feels Like: 57 °F
Forecast: 56 / 65 °F
Wind: 3 mph from South

Location: Church Lawford

Current Time: Oct 31, 2014 at 4:26:28 AM

Latest Report: Oct 31, 2014 at 3:00 AM


Visibility: 2 mi

Pressure: 30.01 "Hg

Humidity: 98%

Dew point: 56 °F

Location of HinckleyLocation

Historic Weather in Hinckley — Graph

°F

Hinckley temperature yesterday

Maximum temperature yesterday: 64 °F (at 2:00 PM)
Minimum temperature yesterday: 51 °F (at 12:00 AM)
Average temperature yesterday: 58 °F

Past Weeks' High & Low Weather Summary

 TemperatureHumidityPressure
High67 °F (Oct 28, 1:00 PM)100% (Oct 16, 4:00 AM)30.27 "Hg (Oct 16, 4:00 AM)
Low42 °F (Oct 25, 8:00 AM)59% (Oct 21, 1:00 PM)29.44 "Hg (Oct 21, 6:00 AM)
Average55 °F87%29.93 "Hg
* Reported Oct 16 4:00 AM — Oct 31 3:00 AM, Hinckley, Weather by CustomWeather, © 2014

Note: Actual official high and low records may vary slightly from our data, if they occured in-between our weather recording intervals... More about our weather records

Advertising

Hinckley weather history for previous 24 hours

 ConditionsComfort  
Time TempWeatherWind HumidityBarometerVisibility
3:00 AM
Oct 31
57 °FFog.3 mph98%30.01 "Hg2 mi
2:00 AM58 °FFog.5 mph97%30.02 "Hg2 mi
1:00 AM58 °FFog.6 mph95%30.03 "Hg2 mi
12:00 AM58 °FFog.7 mph97%30.03 "Hg2 mi
11:00 PM
Oct 30
57 °FFog.3 mph94%30.02 "Hg3 mi
10:00 PM58 °FFog.6 mph94%30.04 "Hg3 mi
9:00 PM59 °FSmoke.7 mph94%30.03 "Hg3 mi
8:00 PM59 °FFog.6 mph95%30.04 "Hg4 mi
7:00 PM58 °FFog.5 mph95%30.03 "Hg5 mi
6:00 PM60 °FSmoke.5 mph93%30.03 "Hg6 mi
5:00 PM61 °FCool.5 mph90%30.03 "Hg7 mi
4:00 PM62 °FCool.5 mph86%30.02 "Hg11 mi
3:00 PM63 °FMild.6 mph84%30.01 "Hg16 mi
2:00 PM64 °FMild.7 mph83%30.02 "Hg14 mi
1:00 PM63 °FMild.7 mph86%30.03 "Hg9 mi
12:00 PM62 °FCool.7 mph88%30.03 "Hg7 mi
11:00 AM61 °FSmoke.7 mph93%30.03 "Hg5 mi
10:00 AM60 °FFog.6 mph96%30.03 "Hg4 mi
9:00 AM58 °FFog.6 mph98%30.01 "Hg2 mi
8:00 AM58 °FFog.7 mph100%30.01 "Hg2 mi
7:00 AM57 °FFog.6 mph100%30.00 "Hg2 mi
6:00 AM56 °FFog.5 mph100%30.00 "Hg2 mi
5:00 AM56 °FFog.6 mph100%30.00 "Hg1 mi
4:00 AM55 °FCool.6 mph100%30.01 "Hg1 mi
Weather by CustomWeather, © 2014

See weather overviewHow to use our weather pages